Flag for Germany Weather past 2 weeks in Mülheim, North Rhine-Westphalia, Germany

Now
39 °F

Clear.


Feels Like: 36 °F
Forecast: 38 / 64 °F
Wind: 5 mph from Northwest

Location: Koeln / Bonn

Current Time: Apr 22, 2015 at 6:20:27 AM

Latest Report: Apr 22, 2015 at 5:20 AM


Visibility: 10 mi

Pressure: 30.39 "Hg

Humidity: 87%

Dew point: 36 °F

Location of MülheimLocation

Historic Weather in Mülheim — Graph

°F

Mülheim temperature yesterday

Maximum temperature yesterday: 70 °F (at 3:20 PM)
Minimum temperature yesterday: 37 °F (at 4:50 AM)
Average temperature yesterday: 55 °F

Past Weeks' High & Low Weather Summary

 TemperatureHumidityPressure
High77 °F (Apr 15, 4:20 PM)100% (Apr 7, 4:20 AM)30.66 "Hg (Apr 7, 4:20 AM)
Low27 °F (Apr 7, 6:50 AM)16% (Apr 10, 6:20 PM)29.89 "Hg (Apr 16, 5:50 PM)
Average52 °F58%30.26 "Hg
* Reported Apr 7 4:20 AM — Apr 22 4:20 AM, Mülheim, Weather by CustomWeather, © 2015

Note: Actual official high and low records may vary slightly from our data, if they occured in-between our weather recording intervals... More about our weather records

Advertising

Mülheim weather history for previous 24 hours

 ConditionsComfort  
Time TempWeatherWind HumidityBarometerVisibility
4:20 AM
Wed, Apr 22
39 °FClear.7 mph87%30.42 "Hg10 mi
3:50 AM41 °FClear.7 mph81%30.42 "Hg10 mi
3:20 AM43 °FClear.6 mph76%30.42 "Hg10 mi
2:50 AM43 °FClear.5 mph76%30.42 "Hg10 mi
2:20 AM45 °FClear.2 mph71%30.42 "Hg10 mi
1:50 AM45 °FClear.5 mph71%30.42 "Hg10 mi
1:20 AM46 °FClear.3 mph66%30.42 "Hg10 mi
12:50 AM48 °FClear.6 mph66%30.42 "Hg10 mi
12:20 AM48 °FClear.7 mph66%30.42 "Hg10 mi
11:50 PM
Tue, Apr 21
50 °FClear.6 mph67%30.42 "Hg10 mi
11:20 PM52 °FClear.7 mph62%30.42 "Hg10 mi
10:50 PM52 °FClear.8 mph58%30.39 "Hg10 mi
10:20 PM55 °FClear.8 mph51%30.39 "Hg10 mi
9:50 PM57 °FClear.10 mph44%30.39 "Hg10 mi
9:20 PM59 °FSunny.8 mph42%30.39 "Hg10 mi
8:50 PM59 °FSunny.10 mph39%30.39 "Hg10 mi
8:20 PM63 °FSunny.13 mph34%30.36 "Hg10 mi
7:50 PM64 °FSunny.12 mph32%30.36 "Hg10 mi
7:20 PM66 °FSunny.15 mph30%30.36 "Hg10 mi
6:50 PM68 °FSunny.14 mph26%30.36 "Hg10 mi
6:20 PM70 °FSunny.13 mph23%30.36 "Hg10 mi
5:50 PM70 °FSunny.15 mph23%30.36 "Hg10 mi
5:20 PM70 °FSunny.14 mph27%30.39 "Hg10 mi
4:50 PM70 °FSunny.14 mph29%30.39 "Hg10 mi
4:20 PM70 °FSunny.12 mph29%30.39 "Hg10 mi
3:50 PM70 °FSunny.12 mph25%30.39 "Hg10 mi
3:20 PM70 °FSunny.9 mph27%30.39 "Hg10 mi
2:50 PM68 °FSunny.10 mph30%30.42 "Hg10 mi
2:20 PM68 °FSunny.8 mph33%30.42 "Hg10 mi
1:50 PM66 °FSunny.8 mph37%30.42 "Hg10 mi
1:20 PM64 °FSunny.8 mph37%30.42 "Hg10 mi
12:50 PM64 °FSunny.8 mph40%30.42 "Hg10 mi
12:20 PM63 °FSunny.6 mph45%30.45 "Hg10 mi
11:50 AM61 °FSunny.7 mph52%30.45 "Hg10 mi
11:20 AM57 °FPassing clouds.6 mph55%30.45 "HgN/A
10:50 AM55 °FSunny.5 mph63%30.45 "Hg10 mi
10:20 AM54 °FSunny.3 mph63%30.45 "Hg10 mi
9:50 AM52 °FSunny.2 mph67%30.45 "Hg10 mi
9:20 AM50 °FSunny.3 mph71%30.45 "Hg10 mi
8:50 AM48 °FSunny.3 mph71%30.45 "Hg10 mi
8:20 AM46 °FSunny.2 mph76%30.42 "Hg10 mi
7:50 AM41 °FSunny.2 mph87%30.42 "Hg10 mi
7:20 AM37 °FClear.2 mph93%30.42 "Hg10 mi
6:50 AM37 °FFog.5 mph93%30.42 "HgN/A
6:20 AM37 °FFog.2 mph87%30.42 "HgN/A
Weather by CustomWeather, © 2015

See weather overviewHow to use our weather pages